Location: Unspecified
(42.9300°N, 71.1866°W)
Time: 00:40:48
(UTC-04:00)

Genesis I - Visible Passes

Search period start: 03 September 2014 00:00
Search period end: 13 September 2014 00:00
Orbit: 503 x 563 km, 64.5° (Epoch: 02 September)

Date Brightness Start Highest point End Pass type
(mag) Time Alt. Az. Time Alt. Az. Time Alt. Az.
03 Sep 3.5 03:53:44 62° N 03:53:44 62° N 03:57:22 10° NNE visible
03 Sep 5.6 05:30:41 10° NW 05:32:08 12° NW 05:33:35 10° NNW visible
04 Sep 4.1 03:43:56 46° N 03:43:56 46° N 03:47:04 10° NNE visible
04 Sep 5.7 05:21:07 10° NW 05:21:56 11° NNW 05:22:45 10° NNW visible
05 Sep 4.7 03:34:06 35° N 03:34:06 35° N 03:36:44 10° NNE visible
06 Sep 5.1 03:24:13 27° N 03:24:13 27° N 03:26:24 10° NNE visible
07 Sep 5.5 03:14:18 22° N 03:14:18 22° N 03:16:02 10° NNE visible
08 Sep 5.8 03:04:20 18° N 03:04:20 18° N 03:05:40 10° NNE visible
09 Sep 6.1 02:54:21 15° N 02:54:21 15° N 02:55:17 10° NNE visible
10 Sep 6.3 02:44:20 13° N 02:44:20 13° N 02:44:53 10° NNE visible
11 Sep 6.5 02:34:18 11° N 02:34:18 11° N 02:34:27 10° NNE visible
